Location: Saratoga Springs
(43.0831°N, 73.7850°W)
Time: 11:35:07
(UTC-04:00)

SR - Pass Details

Date: 21 April 2024
Orbit: 579 x 859 km, 66.7° (Epoch: 27 May)

Event Time Altitude Azimuth Distance (km) Brightness Sun altitude
Exits shadow 03:21:06 35° 300° (WNW) 1,225 ? -25.4°
Maximum altitude 03:21:29 36° 309° (NW) 1,211 ? -25.4°
Drops below altitude 10° 03:26:12 10° 16° (NNE) 2,233 ? -24.8°
Sets 03:28:40 0° 25° (NNE) 3,108 ? -24.5°
